O3B MPOWER F4

Last updated on Sat Jul 18 2026 00:03:21 GMT+0000 (Coordinated Universal Time)

1 56367U 23059A 26197.35842944 -.00000025 00000+0 00000+0 0 9996 2 56367 0.0629 349.7471 0007732 128.2686 242.0585 5.00115393 60068
UTC large
Height (km)
Speed (km/s)
/
Latitude / Longitude
Inclination (degrees)
Orbital Period (minutes)
Azimuth
Elevation
Range (km)
Doppler Factor

Next 0 passes for location: London (51.5072 / 0.1276)

No passes found over London.
O3B MPOWER F4